"Pseudo-MPEC" for A11assH

Created 2024 Sep 7 5:22:04 UT using Find_Orb

Click here for an explanation of pseudo-MPECs

 
 Astrometry: 
     A11assH* C2024 09 02.12984320 34 25.270+02 19 29.86   ~925M 18.18oVNEOCPW68
     A11assH  C2024 09 02.13299720 34 20.335+02 20 32.39   ~925M 18.97oVNEOCPW68
     A11assH  C2024 09 02.14287520 34 04.762+02 23 47.80   ~925M 18.26oVNEOCPW68
     A11assH  C2024 09 02.14873320 33 55.546+02 25 45.30   ~925M 18.70oVNEOCPW68

Station data:
(W68) ATLAS Chile, Rio Hurtado  (S30.471010 W70.764980)  Chile.  Observers L.
   Denneau, R. Siverd, J. Tonry, H. Weiland. Measurers L. Denneau, N.
   Erasmus, A. Fitzsimmons, A. Lawrence, J. Robinson, R. Siverd, J. Tonry, H.
   Weiland. 0.5-m reflector + CCD.

Orbital elements:  A11assH
   Perihelion 2024 May 6.54356 +/- 68.6 TT = 13:02:43 (JD 2460437.04356)
Epoch 2024 Sep  2.0 TT = JDT 2460555.5   Earth MOID: 0.0513   Ve: 0.0567
M 143.98697161 +/- 100              (J2000 ecliptic)             AutoNEOCP
n   1.21552678 +/- 0.607            Peri.  203.97553 +/- 90
a   0.86954693 +/- 0.29             Node   337.05946 +/- 40
e   0.2578698 +/- 0.256             Incl.   48.51524 +/- 26
P   0.811/296.162d         H 23.18  G  0.15   U 12.4  SR
q 0.64531700 +/- 0.216    Q 1.09377686 +/- 17.3
From 4 observations 2024 Sept. 2 (27.2 min); mean residual 0".40
Residuals in arcseconds: 
240902 W68  .30-  .25+    240902 W68  .08+  .82-    
240902 W68  .33+  .01+    240902 W68  .11-  .56+    

Ephemerides (geocentric):
Date (UTC) HH   RA             Dec           delta  r     elong  mag " sig PA
---- --------  ------------   ------------  ------ ------ -----  --- --------
2024 09 07 05  19 19 10.300   +17 44 09.70  .12435 1.0748 119.7 20.8  38d  87
2024 09 07 06  19 18 49.904   +17 47 58.58  .12486 1.0749 119.6 20.8  38d  87
2024 09 07 07  19 18 29.667   +17 51 45.43  .12536 1.0749 119.5 20.8  38d  87
2024 09 07 08  19 18 09.589   +17 55 30.27  .12587 1.0750 119.3 20.8  38d  87
2024 09 07 09  19 17 49.668   +17 59 13.14  .12638 1.0751 119.2 20.8  38d  87
2024 09 07 10  19 17 29.902   +18 02 54.05  .12690 1.0751 119.1 20.9  38d  87
2024 09 07 11  19 17 10.289   +18 06 33.02  .12741 1.0752 119.0 20.9  38d  87
2024 09 07 12  19 16 50.828   +18 10 10.09  .12792 1.0753 118.9 20.9  38d  87
2024 09 07 13  19 16 31.518   +18 13 45.27  .12843 1.0753 118.7 20.9  38d  87
2024 09 07 14  19 16 12.357   +18 17 18.58  .12894 1.0754 118.6 20.9  38d  87
2024 09 07 15  19 15 53.343   +18 20 50.05  .12945 1.0754 118.5 20.9  38d  87
2024 09 07 16  19 15 34.475   +18 24 19.71  .12997 1.0755 118.4 20.9  38d  87
2024 09 07 17  19 15 15.751   +18 27 47.56  .13048 1.0756 118.3 20.9  38d  87
2024 09 07 18  19 14 57.170   +18 31 13.63  .13099 1.0756 118.2 20.9  38d  87
2024 09 07 19  19 14 38.731   +18 34 37.95  .13151 1.0757 118.1 21.0  38d  87
2024 09 07 20  19 14 20.431   +18 38 00.53  .13202 1.0758 117.9 21.0  38d  87
2024 09 07 21  19 14 02.270   +18 41 21.39  .13253 1.0758 117.8 21.0  38d  87
2024 09 07 22  19 13 44.247   +18 44 40.56  .13305 1.0759 117.7 21.0  38d  87
2024 09 07 23  19 13 26.359   +18 47 58.04  .13356 1.0760 117.6 21.0  38d  87
2024 09 08 00  19 13 08.606   +18 51 13.87  .13408 1.0760 117.5 21.0  39d  87
2024 09 08 01  19 12 50.985   +18 54 28.06  .13459 1.0761 117.4 21.0  39d  87
2024 09 08 02  19 12 33.497   +18 57 40.64  .13511 1.0761 117.3 21.0  39d  87
2024 09 08 03  19 12 16.139   +19 00 51.61  .13563 1.0762 117.2 21.0  39d  87
2024 09 08 04  19 11 58.911   +19 04 00.99  .13614 1.0763 117.1 21.1  39d  87
2024 09 08 05  19 11 41.810   +19 07 08.81  .13666 1.0763 117.0 21.1  39d  87
2024 09 08 06  19 11 24.836   +19 10 15.09  .13718 1.0764 116.8 21.1  39d  87
2024 09 08 07  19 11 07.987   +19 13 19.83  .13769 1.0765 116.7 21.1  39d  87
2024 09 08 08  19 10 51.263   +19 16 23.07  .13821 1.0765 116.6 21.1  39d  87
2024 09 08 09  19 10 34.662   +19 19 24.80  .13873 1.0766 116.5 21.1  39d  87
2024 09 08 10  19 10 18.182   +19 22 25.06  .13925 1.0766 116.4 21.1  39d  87
2024 09 08 11  19 10 01.823   +19 25 23.86  .13977 1.0767 116.3 21.1  39d  87
2024 09 08 12  19 09 45.584   +19 28 21.21  .14028 1.0768 116.2 21.1  39d  87
2024 09 08 13  19 09 29.462   +19 31 17.13  .14080 1.0768 116.1 21.2  39d  87
2024 09 08 14  19 09 13.458   +19 34 11.64  .14132 1.0769 116.0 21.2  39d  87
2024 09 08 15  19 08 57.570   +19 37 04.75  .14184 1.0769 115.9 21.2  39d  87
2024 09 08 16  19 08 41.797   +19 39 56.48  .14236 1.0770 115.8 21.2  39d  87
2024 09 08 17  19 08 26.138   +19 42 46.84  .14288 1.0771 115.7 21.2  39d  87
2024 09 08 18  19 08 10.591   +19 45 35.85  .14340 1.0771 115.6 21.2  39d  87
2024 09 08 19  19 07 55.157   +19 48 23.53  .14392 1.0772 115.5 21.2  39d  87
2024 09 08 20  19 07 39.832   +19 51 09.88  .14444 1.0772 115.4 21.2  39d  87
2024 09 08 21  19 07 24.618   +19 53 54.92  .14496 1.0773 115.3 21.2  39d  87
2024 09 08 22  19 07 09.511   +19 56 38.67  .14548 1.0774 115.2 21.2  39d  87
2024 09 08 23  19 06 54.513   +19 59 21.14  .14601 1.0774 115.1 21.3  39d  87
2024 09 09 00  19 06 39.620   +20 02 02.35  .14653 1.0775 115.0 21.3  39d  87
2024 09 09 01  19 06 24.834   +20 04 42.30  .14705 1.0775 114.9 21.3  39d  87
2024 09 09 02  19 06 10.152   +20 07 21.02  .14757 1.0776 114.8 21.3  39d  87
2024 09 09 03  19 05 55.573   +20 09 58.51  .14809 1.0777 114.8 21.3  39d  87
2024 09 09 04  19 05 41.097   +20 12 34.79  .14862 1.0777 114.7 21.3  39d  87